EHI
9 6 6 9 14 18 21 20 17 18 20 17 14 10 8 8 8 10 15 17 13 8 6 5 5 5 5 6 9 12 9 6 6 7 8 9 8 7 9 8 7 6 5
13 12 11 13 17 23 26 25 22 22 22 19 16 13 11 9 10 12 15 16 13 9 8 8 8 7 7 8 10 11 11 8 7 8 7 7 7 7 8 7 6 5 6
19 19 18 17 20 23 27 29 29 28 26 21 18 16 15 14 14 15 17 19 17 13 11 11 11 11 11 10 11 11 11 9 8 8 7 6 6 6 6 6 5 6 7
19 20 20 19 18 19 25 33 37 35 30 25 21 20 20 19 18 18 22 24 21 17 15 14 14 13 12 13 14 13 12 11 10 9 8 7 7 6 5 5 5 6 8
15 17 20 20 18 19 25 36 42 39 33 28 25 24 23 23 22 22 25 25 23 20 18 18 18 17 16 16 18 18 16 15 13 10 8 7 8 8 6 5 5 6 7
14 17 23 25 22 23 30 39 44 41 33 27 26 25 24 24 24 23 23 23 23 23 23 23 24 24 22 21 22 21 19 18 17 14 9 7 7 8 7 5 5 6 6
15 18 25 28 27 29 35 42 47 43 35 29 27 26 24 23 23 21 19 19 21 26 29 29 30 30 25 23 23 23 20 19 19 17 12 8 6 6 5 4 4 4 5
15 18 25 29 29 32 38 44 47 44 37 31 29 27 25 23 22 19 17 17 19 25 32 35 35 32 26 23 24 25 22 21 21 18 15 13 11 8 6 5 5 5 5
13 17 24 28 28 31 39 44 45 43 36 32 31 30 29 27 24 22 19 17 18 22 29 35 36 33 30 27 26 26 24 24 24 19 18 21 19 14 11 9 8 7 5
10 14 21 25 25 28 35 39 40 39 36 33 31 30 31 31 30 29 25 20 18 22 28 33 35 35 33 32 30 27 25 26 25 21 20 23 24 21 17 15 13 11 8
9 12 19 23 23 24 29 32 32 34 35 34 32 31 33 35 35 35 30 23 22 27 31 33 35 34 33 33 32 29 27 26 24 21 20 22 24 24 22 20 17 15 13
10 14 20 24 24 26 30 30 30 31 34 35 34 33 36 39 39 38 33 28 31 36 36 35 35 32 31 34 35 33 31 27 22 19 19 21 23 25 25 23 20 17 15
14 19 26 29 30 34 36 35 32 31 33 34 34 34 38 43 43 41 38 37 40 43 41 37 34 29 28 31 34 34 32 27 20 17 18 20 22 23 24 23 22 19 16
22 29 38 39 40 42 41 39 35 33 34 34 35 37 41 46 47 46 45 44 44 44 43 39 33 27 25 27 31 32 30 25 20 18 17 17 18 19 20 20 21 20 19
30 41 50 50 48 46 45 42 40 39 40 40 40 43 46 49 50 49 48 45 42 41 41 38 32 25 21 21 24 26 25 22 20 19 18 16 16 16 16 15 14 15 16
30 42 52 54 51 49 48 48 47 45 45 46 46 48 51 52 51 50 48 46 42 40 38 35 30 24 18 15 15 17 21 21 20 19 17 14 14 15 13 10 7 7 8
23 31 42 49 50 50 52 54 52 50 49 49 50 53 54 53 52 50 50 49 45 42 39 35 32 26 18 11 9 10 16 21 20 18 15 11 11 14 14 9 5 4 4
17 21 30 39 45 49 54 57 55 53 52 51 53 54 53 51 50 51 53 50 46 42 39 37 36 30 21 11 6 8 16 23 22 19 15 12 11 12 14 13 9 7 5
17 17 21 31 41 49 55 56 53 52 52 51 50 51 50 48 48 51 54 51 45 40 37 36 36 33 24 12 5 7 16 23 23 20 16 13 11 9 10 14 15 13 10
21 20 21 30 44 53 56 54 48 48 50 49 48 48 49 47 47 50 52 49 42 36 32 30 33 33 25 12 3 5 14 21 21 18 15 11 8 5 6 11 17 16 14
26 25 26 35 48 55 56 53 48 47 48 47 46 48 47 46 46 48 50 45 36 31 28 27 28 30 23 10 2 3 9 14 16 15 13 10 5 2 2 7 12 13 12
29 29 32 39 47 52 53 51 48 46 47 47 47 49 47 45 45 48 47 41 34 29 26 25 26 25 21 11 3 1 3 6 10 13 12 8 3 0 0 2 5 6 6
27 29 33 39 44 48 50 49 46 45 47 48 49 50 49 47 48 48 44 37 32 29 25 23 23 23 21 14 6 2 1 1 5 8 7 3 1 0 0 1 1 3 4
25 29 35 38 41 42 44 43 42 43 46 48 49 48 47 46 46 43 36 31 29 27 23 20 20 21 19 15 9 6 4 2 3 5 4 2 1 1 2 2 2 3 6
26 31 34 35 35 36 37 37 37 39 44 47 47 44 42 39 37 34 27 22 21 19 16 15 16 17 16 12 9 7 6 3 2 5 6 5 4 4 6 6 5 6 7
27 31 33 32 30 31 33 34 33 36 42 46 45 41 38 34 31 27 21 15 13 11 9 10 12 14 13 10 7 7 6 3 2 5 8 7 6 6 8 10 9 8 8
Wind_Speed
12 11 11 11 11 10 8 7 6 5 3 2 2 2 2 1 2 2 3 2 2 2 1 1 1 1 2 2 2 2 2 1 2 1 1 1 2 2 2 2 2 3 3
12 12 12 12 12 11 9 8 7 6 5 3 2 2 2 2 2 2 3 2 2 1 2 2 1 1 2 1 1 1 1 1 1 1 1 1 1 0 2 2 2 3 2
14 13 13 12 12 11 10 8 7 6 5 5 3 2 2 1 2 2 2 1 2 2 1 2 1 1 1 1 1 1 1 1 1 1 1 1 1 1 1 2 2 2 2
14 13 13 13 13 12 11 9 8 7 5 4 4 4 4 3 3 2 2 3 2 2 2 1 1 1 1 1 1 1 0 1 1 0 0 0 1 1 1 0 1 2 2
13 13 12 12 12 13 12 11 9 7 6 5 4 2 3 2 2 2 3 3 3 3 3 2 2 1 1 1 0 1 0 0 1 1 0 0 1 1 1 1 1 1 1
12 12 12 11 11 12 12 11 10 8 7 6 5 4 3 2 2 2 3 2 2 2 3 3 2 2 2 1 1 1 1 0 1 1 0 0 0 1 1 1 1 1 1
10 11 12 12 11 11 11 12 11 9 8 7 6 5 4 3 3 3 3 2 2 2 3 3 3 2 2 2 2 1 1 1 1 1 1 1 1 1 1 1 1 0 0
10 10 11 12 11 11 11 12 11 10 9 8 6 5 5 4 3 3 2 2 2 2 3 3 3 2 3 3 2 2 2 1 1 2 1 1 1 1 1 1 1 1 1
10 9 10 11 10 10 11 12 12 10 9 9 7 6 5 4 3 3 3 2 2 2 3 3 3 3 3 2 2 1 2 2 2 2 1 1 1 1 1 1 1 2 2
9 10 9 10 10 9 9 11 11 11 10 9 8 7 6 5 4 3 2 2 1 0 1 2 2 2 2 2 2 2 2 2 2 1 1 1 1 1 1 1 1 1 2
8 8 8 8 8 9 9 9 9 10 9 9 8 7 7 6 5 4 3 2 2 2 2 2 2 2 2 2 2 3 2 2 2 2 2 2 2 2 1 1 1 1 1
6 7 7 8 9 9 9 9 9 9 9 8 8 8 6 6 6 5 4 3 2 2 2 2 2 3 2 2 3 3 3 3 3 3 2 2 2 2 2 2 2 2 1
6 7 7 5 6 6 6 7 8 8 8 8 8 7 7 7 6 5 4 4 4 3 3 2 2 2 3 3 2 2 2 2 2 2 2 2 2 2 1 2 2 2 2
6 7 6 5 4 4 4 5 6 7 6 7 7 6 6 6 5 4 4 4 3 4 4 3 3 3 3 2 2 2 3 2 2 2 2 2 2 2 2 2 2 2 3
5 6 6 5 5 5 4 5 5 5 5 5 5 5 5 5 5 5 5 4 4 4 3 3 4 3 3 3 2 3 3 3 3 2 2 2 2 2 2 3 2 2 2
4 5 5 5 4 4 5 5 4 4 5 5 5 5 5 5 5 5 5 4 4 3 3 4 4 4 3 1 1 1 2 2 3 3 3 4 4 4 3 2 2 2 3
3 4 4 4 4 4 4 4 4 4 4 5 4 4 4 4 5 5 5 5 4 4 4 4 4 3 2 2 2 1 3 3 2 3 3 4 3 3 2 3 4 4 4
2 2 2 3 4 4 3 3 4 4 4 4 4 4 4 4 5 4 4 4 4 4 4 4 4 4 4 4 3 3 4 3 3 4 3 2 1 2 2 3 3 4 3
2 1 1 2 3 4 3 3 4 4 5 5 5 5 5 5 5 4 4 4 4 4 4 4 4 4 4 5 4 3 3 4 4 4 2 2 2 2 2 3 3 3 3
2 2 1 1 2 2 3 3 4 4 5 5 4 4 4 4 5 5 4 3 3 4 4 4 4 4 4 5 5 4 4 4 3 3 2 2 2 1 2 2 3 4 4
3 3 2 1 1 1 3 3 4 4 4 4 4 4 4 4 4 4 3 3 4 4 5 5 4 4 5 6 7 6 4 4 4 3 3 2 4 3 4 4 4 5 4
4 4 3 2 1 1 2 2 3 2 2 3 4 4 4 5 5 4 4 4 5 5 5 4 4 4 5 6 7 7 7 6 4 3 2 1 4 4 6 5 5 6 5
3 3 3 2 1 0 1 2 2 1 1 3 4 4 5 5 4 5 5 5 4 4 4 4 3 3 3 3 5 7 8 7 4 3 2 2 5 4 4 7 7 5 4
3 4 3 3 2 1 1 2 1 1 2 2 3 3 4 4 4 4 5 5 5 5 4 4 4 3 3 2 3 3 4 5 4 3 3 4 5 5 5 4 4 4 4
3 3 3 2 2 2 2 1 1 2 2 3 3 3 4 3 3 3 3 4 3 4 4 4 3 3 3 4 5 4 4 4 4 3 3 3 3 4 4 4 4 3 3
2 2 2 2 2 3 2 2 1 1 2 2 3 3 3 3 3 3 1 1 1 2 3 3 2 2 3 5 6 5 5 5 4 3 4 4 4 4 4 4 4 3 3
Wind_Direction
162 162 162 154 148 148 150 153 156 153 154 147 155 154 150 153 133 125 114 126 139 129 118 77 112 102 97 89 106 110 130 154 150 113 90 109 148 157 150 164 162 167 173
162 166 165 162 159 157 158 159 163 161 166 165 162 169 167 169 136 118 120 130 127 123 131 132 136 111 124 117 100 101 118 198 177 155 156 152 152 197 165 162 172 179 172
165 169 169 169 166 164 166 164 164 165 176 170 166 165 147 152 141 136 136 141 137 128 76 117 125 127 119 131 151 141 169 214 234 182 177 162 152 149 156 163 168 160 154
167 170 173 173 172 170 165 160 162 164 171 174 182 180 168 179 175 158 150 155 155 150 149 140 127 118 86 103 189 147 213 209 245 264 41 128 130 141 130 153 161 152 164
169 171 175 172 174 170 165 164 161 164 169 176 174 192 179 179 158 149 150 165 160 163 161 157 164 153 137 172 214 98 68 321 283 261 125 109 125 143 167 170 152 157 179
170 170 171 169 171 169 165 162 161 167 171 178 173 183 193 177 156 161 162 178 165 165 172 174 177 170 179 189 186 176 166 238 307 323 317 234 194 165 180 188 194 180 201
167 169 168 166 168 166 164 160 162 171 178 182 184 182 187 185 185 192 187 188 177 170 185 181 174 177 184 187 178 188 210 208 239 278 292 288 243 219 200 185 208 179 207
168 169 169 166 168 168 163 158 161 171 180 183 187 185 186 195 200 198 210 191 206 187 166 171 174 179 191 192 183 189 197 201 226 251 255 278 292 278 238 211 185 192 237
164 168 170 164 167 169 167 165 164 170 178 182 180 184 191 195 192 189 200 219 211 181 161 172 177 190 204 199 188 202 198 190 216 236 242 246 268 271 265 252 215 193 213
168 170 171 168 169 170 169 167 168 172 179 181 186 186 189 187 187 190 195 208 226 166 168 176 191 196 203 205 205 218 210 199 216 224 262 282 280 276 278 281 277 222 203
167 166 169 164 168 174 170 168 168 173 177 182 188 186 182 185 189 189 197 199 198 198 193 199 203 206 208 212 213 213 204 212 223 228 220 235 259 274 286 276 266 264 226
161 155 158 163 175 180 173 171 171 176 180 180 180 187 183 182 188 191 192 193 196 202 204 201 203 212 212 211 215 216 211 214 222 230 235 245 246 241 258 273 263 255 256
152 145 147 160 171 172 170 170 178 179 181 176 182 186 182 182 184 183 186 190 191 187 197 198 209 219 214 216 218 223 218 213 228 230 233 248 256 252 248 260 269 266 259
148 144 139 151 154 153 156 167 182 180 178 176 179 178 181 178 177 179 185 196 195 192 194 199 208 218 222 214 211 226 232 225 230 232 234 243 245 260 263 257 264 273 268
134 128 136 142 148 152 156 170 185 174 171 172 175 174 176 170 175 183 193 197 200 207 194 204 211 216 221 217 218 231 227 233 238 235 232 241 223 235 263 271 274 273 273
130 129 139 141 153 161 171 178 177 170 167 174 182 178 174 173 179 189 193 196 200 207 202 206 212 221 230 146 127 266 259 246 243 241 237 235 218 206 205 242 280 283 273
128 126 141 156 170 178 178 183 175 169 175 179 180 177 178 182 189 201 194 198 204 210 213 208 204 194 183 155 155 235 259 248 248 257 249 251 237 200 218 232 242 260 263
108 121 151 168 181 187 183 180 180 174 178 178 181 176 184 192 196 199 198 202 205 212 221 218 204 190 197 192 199 241 253 247 238 245 250 251 257 276 281 255 246 249 255
55 50 224 200 182 183 174 182 192 187 190 193 196 192 192 195 196 196 201 208 210 214 221 220 210 201 195 198 202 223 251 250 246 243 249 226 216 274 290 277 272 273 272
40 358 316 259 155 152 159 187 210 204 206 205 200 194 192 197 201 199 204 211 217 221 225 224 220 203 187 195 204 219 253 256 256 243 226 219 224 223 273 274 281 275 278
17 359 8 25 92 143 166 196 218 217 214 209 199 196 196 203 203 199 199 209 223 228 233 225 222 204 190 188 201 209 248 264 261 250 234 215 200 215 240 256 261 264 275
20 2 5 16 33 141 154 200 236 234 218 213 203 199 202 219 212 198 202 212 224 231 236 230 220 199 185 187 200 208 232 257 275 278 268 242 211 223 238 246 256 265 271
15 355 345 3 18 6 201 236 256 259 238 222 212 210 211 220 206 199 209 214 215 222 227 227 223 216 193 187 191 208 230 242 258 280 291 252 226 231 238 243 251 255 256
0 349 349 346 344 332 284 265 264 258 239 236 227 221 222 221 202 201 212 210 213 220 221 223 224 213 201 193 194 209 223 231 242 259 257 238 229 242 251 244 239 237 242
349 345 340 338 338 343 317 286 268 261 250 246 238 228 224 221 209 211 226 226 218 211 214 226 221 215 215 210 196 206 219 228 232 237 240 237 230 233 238 239 233 228 230
349 341 334 331 336 331 319 317 299 273 265 252 246 240 227 213 220 210 223 343 266 180 173 190 211 211 209 193 192 200 200 211 210 216 238 239 239 242 241 241 239 230 234